Location: Bartlow
(52.0833°N, 0.3167°E)
Time: 05:31:27
(UTC+00:00)

Meteor 2-17 Rocket - Pass Details

Date: 28 April 2024
Orbit: 934 x 957 km, 82.5° (Epoch: 25 May)

Event Time Altitude Azimuth Distance (km) Brightness Sun altitude
Exits shadow 00:35:27 35° 142° (SE) 1,485 5.1 -23.1°
Maximum altitude 00:37:35 49° 92° (E) 1,201 5.0 -23.1°
Drops below altitude 10° 00:43:24 10° 19° (NNE) 2,667 7.9 -22.9°
Sets 00:45:57 0° 14° (NNE) 3,613 9.0 -22.8°
